Location: Abundant Grace Fellowship
(35.0349°N, 90.0924°W)
Time: 22:24:49
(UTC+00:00)

Cosmos 2278 Rocket - Pass Details

Date: 18 January 2026
Orbit: 839 x 846 km, 71.0° (Epoch: 13 February)

Event Time Altitude Azimuth Distance (km) Brightness Sun altitude
Exits shadow 11:02:18 68° 263° (W) 904 2.0 -25.3°
Maximum altitude 11:02:41 70° 292° (WNW) 891 2.0 -25.2°
Drops below altitude 10° 11:08:19 10° 16° (NNE) 2,463 4.7 -24.0°
Sets 11:10:47 0° 19° (NNE) 3,402 5.5 -23.5°
